Humidity-temperature Sensor

Selected Measurement Type: Relative Humidity

 
Relative Humidity [%]     6 entries per hour
Showing data from 7/13/2023 (19:00:00 Z) to 7/6/2023 (00:01:00 Z)
Previous Next [ Day | 3-Days | 7-Days ]
First Last
Prev [ Day | 3-Days | 7-Days ] Next
First Last

Start Time:     :
End Time:     :     
Time (in GMT) :00 :50 :40 :30 :20 :10
Previous Next [ Day | 3-Days | 7-Days ]
First Last
Prev [ Day | 3-Days | 7-Days ] Next
First Last


123 => good data
MM => data is determined as missing
-- => data not received/configured
Back to Top Back to Top
7/13/2023 19:00 to 18:10 99.91 99.93 99.93 99.93 99.91 99.91
7/13/2023 18:00 to 17:10 99.93 99.93 99.93 99.93 99.93 99.93
7/13/2023 17:00 to 16:10 99.93 99.93 99.93 99.93 99.93 99.93
7/13/2023 16:00 to 15:10 99.93 99.93 99.93 99.93 99.93 99.93
7/13/2023 15:00 to 14:10 99.93 99.93 99.93 99.93 99.93 99.93
7/13/2023 14:00 to 13:10 99.93 99.93 99.93 99.93 99.93 99.93
7/13/2023 13:00 to 12:10 99.93 99.93 99.93 99.93 99.93 99.93
7/13/2023 12:00 to 11:10 99.93 99.93 99.93 99.93 99.93 99.93
7/13/2023 11:00 to 10:10 99.93 99.93 99.93 99.93 99.93 99.93
7/13/2023 10:00 to 9:10 99.93 99.93 99.93 99.93 99.93 99.93
7/13/2023 09:00 to 8:10 99.93 99.93 99.93 99.93 99.93 99.93
7/13/2023 08:00 to 7:10 99.93 99.93 99.93 99.93 99.93 99.93
7/13/2023 07:00 to 6:10 99.93 99.93 99.93 99.93 99.93 99.93
7/13/2023 06:00 to 5:10 99.93 99.93 99.93 99.93 99.91 99.91
7/13/2023 05:00 to 4:10 99.93 99.93 99.93 99.93 99.93 99.93
7/13/2023 04:00 to 3:10 99.93 99.91 99.93 99.93 99.93 99.93
7/13/2023 03:00 to 2:10 99.93 99.93 99.93 99.91 99.91 99.91
7/13/2023 02:00 to 1:10 99.93 99.91 99.93 99.93 99.93 99.93
7/13/2023 01:00 to 0:10 99.93 99.93 99.93 99.93 99.93 99.91
7/13/2023 00:00 to 23:10 99.91 99.91 99.93 99.89 99.93 99.93
7/12/2023 23:00 to 22:10 99.93 99.89 99.91 99.85 99.73 99.65
7/12/2023 22:00 to 21:10 99.93 99.63 99.37 99.51 99.39 99.65
7/12/2023 21:00 to 20:10 99.29 98.53 98.11 98.93 99.31 98.57
7/12/2023 20:00 to 19:10 98.29 98.19 97.87 98.15 98.95 98.75
7/12/2023 19:00 to 18:10 98.23 97.09 99.57 97.89 97.33 96.19
7/12/2023 18:00 to 17:10 97.89 96.49 97.05 97.15 96.25 98.17
7/12/2023 17:00 to 16:10 97.23 97.37 96.97 97.81 98.25 97.27
7/12/2023 16:00 to 15:10 97.81 97.29 96.93 95.73 97.61 96.53
7/12/2023 15:00 to 14:10 97.43 97.29 97.39 97.93 96.83 97.25
7/12/2023 14:00 to 13:10 96.45 97.17 97.61 97.69 97.09 97.53
7/12/2023 13:00 to 12:10 99.13 99.13 98.99 97.51 98.87 98.45
7/12/2023 12:00 to 11:10 98.75 97.67 96.59 96.89 97.11 97.17
7/12/2023 11:00 to 10:10 96.67 97.49 98.07 98.17 97.03 95.99
7/12/2023 10:00 to 9:10 96.15 96.57 99.13 98.31 98.21 98.73
7/12/2023 09:00 to 8:10 98.19 97.47 96.77 97.03 98.03 99.37
7/12/2023 08:00 to 7:10 97.77 98.93 97.61 97.89 96.35 96.29
7/12/2023 07:00 to 6:10 97.41 97.75 98.05 98.69 96.69 97.71
7/12/2023 06:00 to 5:10 97.59 97.13 96.95 97.01 96.91 97.49
7/12/2023 05:00 to 4:10 96.57 97.05 96.29 96.25 96.57 96.05
7/12/2023 04:00 to 3:10 95.65 96.29 97.57 96.97 97.31 96.95
7/12/2023 03:00 to 2:10 95.77 96.71 97.21 97.69 95.81 98.07
7/12/2023 02:00 to 1:10 97.75 99.05 98.01 98.03 97.65 96.39
7/12/2023 01:00 to 0:10 96.99 96.01 96.07 95.87 96.17 96.71
7/12/2023 00:00 to 23:10 96.85 95.83 94.95 94.73 96.55 96.17
7/11/2023 23:00 to 22:10 95.83 95.75 95.71 97.21 96.89 97.05
7/11/2023 22:00 to 21:10 96.45 94.49 94.83 95.39 96.41 96.23
7/11/2023 21:00 to 20:10 97.83 97.33 96.73 94.93 97.93 96.49
7/11/2023 20:00 to 19:10 95.95 96.17 96.09 96.95 97.35 98.29
7/11/2023 19:00 to 18:10 97.45 98.95 98.81 99.93 99.93 99.93
7/11/2023 18:00 to 17:10 99.93 99.93 99.93 99.93 99.93 99.93
7/11/2023 17:00 to 16:10 99.93 99.93 99.93 99.93 99.93 99.93
7/11/2023 16:00 to 15:10 99.93 99.79 98.23 97.61 97.99 96.77
7/11/2023 15:00 to 14:10 94.97 98.49 99.87 96.93 96.17 95.45
7/11/2023 14:00 to 13:10 95.47 95.69 96.33 95.43 94.97 96.07
7/11/2023 13:00 to 12:10 95.61 94.51 94.03 95.67 95.35 96.31
7/11/2023 12:00 to 11:10 95.69 95.61 94.85 95.05 94.63 94.07
7/11/2023 11:00 to 10:10 94.81 93.95 95.81 94.79 94.67 95.13
7/11/2023 10:00 to 9:10 94.75 95.09 95.47 94.51 94.21 94.19
7/11/2023 09:00 to 8:10 95.87 95.39 95.17 93.89 94.81 94.61
7/11/2023 08:00 to 7:10 94.43 94.21 94.17 95.21 93.81 93.17
7/11/2023 07:00 to 6:10 92.61 93.79 91.93 92.61 92.61 92.43
7/11/2023 06:00 to 5:10 92.09 92.53 91.51 92.45 92.71 92.69
7/11/2023 05:00 to 4:10 92.17 91.65 91.77 92.53 92.27 94.11
7/11/2023 04:00 to 3:10 93.65 91.91 92.55 92.13 92.91 91.83
7/11/2023 03:00 to 2:10 93.53 91.21 93.01 91.95 93.19 91.95
7/11/2023 02:00 to 1:10 91.45 91.17 92.25 92.35 90.71 91.57
7/11/2023 01:00 to 0:10 89.41 89.11 89.07 89.65 88.71 88.83
7/11/2023 00:00 to 23:10 89.41 89.97 87.53 87.95 88.59 89.37
7/10/2023 23:00 to 22:10 87.63 88.53 90.87 88.87 88.99 88.17
7/10/2023 22:00 to 21:10 87.43 87.67 89.27 88.77 88.69 89.47
7/10/2023 21:00 to 20:10 89.49 89.35 88.69 89.59 90.41 88.41
7/10/2023 20:00 to 19:10 89.35 88.33 88.47 89.77 89.95 87.79
7/10/2023 19:00 to 18:10 87.89 88.11 85.97 88.79 89.03 87.01
7/10/2023 18:00 to 17:10 88.39 87.79 88.47 88.47 87.85 88.89
7/10/2023 17:00 to 16:10 88.93 89.43 87.05 89.49 88.09 90.13
7/10/2023 16:00 to 15:10 90.43 89.45 88.69 90.91 91.83 91.43
7/10/2023 15:00 to 14:10 90.47 90.93 89.75 89.93 89.19 89.55
7/10/2023 14:00 to 13:10 89.19 88.73 89.39 88.89 89.83 88.65
7/10/2023 13:00 to 12:10 88.31 89.37 88.83 89.07 88.73 89.21
7/10/2023 12:00 to 11:10 89.45 88.83 88.35 88.73 86.39 87.87
7/10/2023 11:00 to 10:10 88.33 87.99 88.63 88.75 88.45 86.87
7/10/2023 10:00 to 9:10 86.37 85.59 87.35 88.03 87.61 89.03
7/10/2023 09:00 to 8:10 85.07 85.79 87.41 88.79 88.01 87.83
7/10/2023 08:00 to 7:10 88.69 86.37 87.25 86.47 86.11 86.33
7/10/2023 07:00 to 6:10 86.27 85.57 85.81 86.35 87.31 85.95
7/10/2023 06:00 to 5:10 84.43 86.79 86.13 87.13 86.91 85.55
7/10/2023 05:00 to 4:10 86.71 86.57 86.37 85.95 87.97 86.41
7/10/2023 04:00 to 3:10 86.81 86.65 87.59 86.33 86.27 87.31
7/10/2023 03:00 to 2:10 84.75 85.13 85.71 86.17 85.07 86.71
7/10/2023 02:00 to 1:10 86.45 85.57 85.89 85.17 85.25 85.39
7/10/2023 01:00 to 0:10 84.59 84.97 85.29 83.89 83.11 82.73
7/10/2023 00:00 to 23:10 83.93 83.11 84.71 86.05 84.95 85.29
7/9/2023 23:00 to 22:10 86.19 86.09 87.83 85.09 85.55 86.01
7/9/2023 22:00 to 21:10 87.13 85.83 86.67 86.79 86.09 85.63
7/9/2023 21:00 to 20:10 84.99 86.09 87.43 86.49 87.23 86.17
7/9/2023 20:00 to 19:10 86.05 85.91 86.23 85.47 85.79 87.05
7/9/2023 19:00 to 18:10 85.75 85.49 86.31 86.39 84.99 85.01
7/9/2023 18:00 to 17:10 84.57 83.97 85.47 86.47 85.85 86.49
7/9/2023 17:00 to 16:10 86.41 86.31 84.87 84.85 86.29 86.39
7/9/2023 16:00 to 15:10 86.07 84.53 84.67 84.83 83.03 84.67
7/9/2023 15:00 to 14:10 87.49 88.89 83.45 84.29 85.79 86.09
7/9/2023 14:00 to 13:10 87.03 86.65 87.29 85.71 84.83 84.79
7/9/2023 13:00 to 12:10 85.63 85.69 82.89 84.23 85.01 84.45
7/9/2023 12:00 to 11:10 84.97 86.31 84.47 84.85 84.51 87.41
7/9/2023 11:00 to 10:10 84.89 84.43 85.75 85.19 85.29 86.27
7/9/2023 10:00 to 9:10 85.33 85.75 85.05 84.09 85.73 85.45
7/9/2023 09:00 to 8:10 85.31 84.83 84.75 84.73 83.59 84.85
7/9/2023 08:00 to 7:10 84.79 84.43 84.39 84.83 84.61 84.37
7/9/2023 07:00 to 6:10 84.13 83.43 82.91 83.41 83.57 84.35
7/9/2023 06:00 to 5:10 85.23 84.43 85.71 85.45 85.09 84.03
7/9/2023 05:00 to 4:10 85.59 85.77 83.19 84.41 86.11 85.37
7/9/2023 04:00 to 3:10 85.03 84.35 83.95 83.57 84.35 83.25
7/9/2023 03:00 to 2:10 82.47 80.67 81.73 81.23 81.33 81.03
7/9/2023 02:00 to 1:10 81.01 80.47 81.15 80.75 79.35 80.79
7/9/2023 01:00 to 0:10 80.39 79.85 81.09 80.55 79.93 81.65
7/9/2023 00:00 to 23:10 82.83 81.11 82.91 80.53 81.81 80.89
7/8/2023 23:00 to 22:10 81.89 82.41 81.95 83.81 83.19 81.73
7/8/2023 22:00 to 21:10 82.83 80.49 81.89 84.09 81.99 83.53
7/8/2023 21:00 to 20:10 83.27 83.27 83.71 84.11 84.03 85.57
7/8/2023 20:00 to 19:10 83.27 84.43 84.89 84.67 83.79 84.85
7/8/2023 19:00 to 18:10 84.35 83.39 83.45 84.13 84.35 82.45
7/8/2023 18:00 to 17:10 83.71 81.65 83.51 84.57 82.75 82.45
7/8/2023 17:00 to 16:10 84.25 83.87 82.97 83.99 82.77 83.05
7/8/2023 16:00 to 15:10 83.33 82.93 84.09 83.27 82.71 84.09
7/8/2023 15:00 to 14:10 82.87 84.21 84.43 84.75 85.49 84.61
7/8/2023 14:00 to 13:10 84.69 83.39 84.13 84.47 85.45 86.01
7/8/2023 13:00 to 12:10 83.71 83.93 85.81 85.55 80.71 83.51
7/8/2023 12:00 to 11:10 82.31 82.41 83.95 83.95 82.35 83.45
7/8/2023 11:00 to 10:10 83.73 83.33 83.63 82.41 82.09 81.23
7/8/2023 10:00 to 9:10 82.09 83.07 83.67 82.43 83.17 80.05
7/8/2023 09:00 to 8:10 78.99 81.05 82.11 82.65 82.57 83.13
7/8/2023 08:00 to 7:10 84.11 82.89 83.25 83.27 81.83 82.33
7/8/2023 07:00 to 6:10 83.43 82.59 82.93 82.29 82.23 82.37
7/8/2023 06:00 to 5:10 81.33 80.53 83.55 82.67 82.71 81.83
7/8/2023 05:00 to 4:10 81.71 80.77 80.35 81.47 82.93 80.39
7/8/2023 04:00 to 3:10 82.73 83.19 82.47 83.45 83.11 83.39
7/8/2023 03:00 to 2:10 81.55 82.87 81.65 81.75 83.11 82.99
7/8/2023 02:00 to 1:10 81.53 81.67 81.63 81.61 82.41 82.99
7/8/2023 01:00 to 0:10 81.47 81.77 83.25 83.35 83.13 82.51
7/8/2023 00:00 to 23:10 81.79 82.51 82.31 82.49 82.37 82.53
7/7/2023 23:00 to 22:10 81.39 82.21 81.37 80.69 81.49 81.33
7/7/2023 22:00 to 21:10 81.25 79.75 81.53 79.99 80.11 80.47
7/7/2023 21:00 to 20:10 81.63 81.71 83.01 82.87 82.95 83.67
7/7/2023 20:00 to 19:10 83.63 84.31 82.31 83.11 81.57 81.55
7/7/2023 19:00 to 18:10 81.97 82.09 80.71 80.13 78.59 79.41
7/7/2023 18:00 to 17:10 79.77 79.67 79.57 81.51 79.53 80.91
7/7/2023 17:00 to 16:10 81.59 80.05 80.63 80.55 78.97 80.37
7/7/2023 16:00 to 15:10 79.39 78.49 79.59 78.19 78.25 79.59
7/7/2023 15:00 to 14:10 80.35 79.85 81.47 81.31 82.21 83.13
7/7/2023 14:00 to 13:10 80.33 81.09 81.07 82.59 78.99 79.85
7/7/2023 13:00 to 12:10 79.95 82.01 82.45 82.69 82.63 83.11
7/7/2023 12:00 to 11:10 84.17 83.27 83.51 81.25 79.87 83.33
7/7/2023 11:00 to 10:10 85.85 85.55 85.69 86.17 86.79 85.91
7/7/2023 10:00 to 9:10 84.89 83.87 82.75 85.37 87.49 89.11
7/7/2023 09:00 to 8:10 90.37 89.77 91.89 90.59 89.17 90.49
7/7/2023 08:00 to 7:10 90.01 89.67 88.35 85.35 88.69 89.27
7/7/2023 07:00 to 6:10 90.81 91.45 87.35 88.27 87.07 86.35
7/7/2023 06:00 to 5:10 86.65 90.77 88.99 84.05 82.87 83.51
7/7/2023 05:00 to 4:10 84.67 89.27 92.97 92.09 89.73 91.47
7/7/2023 04:00 to 3:10 92.73 93.57 94.09 92.99 92.67 91.65
7/7/2023 03:00 to 2:10 84.23 86.69 86.85 86.29 84.85 81.69
7/7/2023 02:00 to 1:10 83.83 85.29 86.35 79.67 80.11 81.13
7/7/2023 01:00 to 0:10 81.01 81.05 80.55 80.45 78.97 79.11
7/7/2023 00:00 to 23:10 79.97 78.81 79.71 80.79 80.29 81.67
7/6/2023 23:00 to 22:10 80.93 79.63 79.23 78.21 78.83 78.03
7/6/2023 22:00 to 21:10 78.93 77.77 77.27 77.63 78.33 80.35
7/6/2023 21:00 to 20:10 79.03 81.75 83.11 78.67 79.43 83.39
7/6/2023 20:00 to 19:10 82.39 82.09 83.77 84.89 88.27 87.55
7/6/2023 19:00 to 18:10 87.49 86.83 85.37 82.17 86.11 86.59
7/6/2023 18:00 to 17:10 80.67 79.59 80.25 78.63 78.09 77.63
7/6/2023 17:00 to 16:10 77.85 76.29 77.21 73.87 73.49 73.73
7/6/2023 16:00 to 15:10 70.73 74.51 71.83 73.89 73.53 74.95
7/6/2023 15:00 to 14:10 76.87 78.11 77.63 79.49 79.89 79.75
7/6/2023 14:00 to 13:10 80.41 81.89 80.05 78.49 78.89 78.47
7/6/2023 13:00 to 12:10 77.29 77.83 79.57 79.59 77.37 81.39
7/6/2023 12:00 to 11:10 80.75 80.35 80.87 79.05 80.51 80.51
7/6/2023 11:00 to 10:10 79.93 78.35 76.47 76.67 77.61 78.31
7/6/2023 10:00 to 9:10 78.77 78.59 81.71 79.27 78.89 80.59
7/6/2023 09:00 to 8:10 80.21 81.09 83.01 81.19 81.97 79.63
7/6/2023 08:00 to 7:10 79.57 79.97 79.15 79.03 80.27 82.21
7/6/2023 07:00 to 6:10 81.01 81.77 79.87 79.79 79.17 80.41
7/6/2023 06:00 to 5:10 79.69 78.83 77.45 79.53 80.27 80.59
7/6/2023 05:00 to 4:10 81.65 81.25 81.59 79.95 78.89 80.97
7/6/2023 04:00 to 3:10 80.67 79.31 79.89 79.43 79.81 78.93
7/6/2023 03:00 to 2:10 80.19 81.09 80.67 81.21 81.17 80.43
7/6/2023 02:00 to 1:10 79.01 79.61 78.97 82.11 79.73 78.77
7/6/2023 01:00 to 0:10 79.61 79.35 79.01 78.57 77.93 76.95